[[{"header":{"parameterUnit":"m.s-1","parameterCategory":1,"la1":30.2991,"la2":30.254,"lo1":-89.0895,"lo2":-89.0444,"dy":0.0017,"dx":0.0017,"nx":28,"ny":28,"refTime":"2023-03-20T15:00:00:Z","depth":0,"parameterNumber":2,"parameterNumberName":"U-component_of_WINDS"},"data":[0,0,0,0,0,0,0,0,0,0,0,0,0,0,0,0,0,0,0,0,0,0,0,0,0,0,0,0,0,0,0,0,0,0,0,0,0,0,0,0,0,0,0,0,0,0,0,0,0,0,0,0,0,0,0,0,0,0,-1.5786,-1.5786,0,-1.5803,-1.5803,-1.5803,-1.5791,-1.5791,-1.579,-1.579,-1.5807,-1.5808,-1.5809,0,0,0,0,0,0,0,0,0,0,0,0,0,-1.5743,-1.5744,-1.5786,-1.5786,-1.5786,-1.5803,-1.5803,-1.5803,-1.5792,-1.5791,-1.579,-1.579,-1.5807,-1.5808,-1.5809,0,0,0,0,0,0,0,0,0,0,0,0,0,-1.5761,-1.5744,-1.5786,-1.5782,-1.5782,-1.5803,-1.5803,-1.5804,-1.5792,-1.5791,-1.579,-1.5789,-1.5807,-1.5808,-1.5809,-1.5835,0,0,-1.5814,-1.5815,0,0,0,0,0,0,0,0,-1.576,-1.5762,-1.5783,-1.5783,-1.5782,-1.5794,-1.5794,-1.5814,-1.5792,-1.5788,-1.579,-1.5789,-1.5804,-1.5805,-1.581,-1.5835,-1.5836,-1.5814,-1.5815,-1.5816,-1.5816,0,0,0,0,0,0,0,-1.5759,-1.5762,-1.5793,-1.5783,-1.5783,-1.578,-1.5782,-1.5798,-1.58,-1.5788,-1.5787,-1.579,-1.5803,-1.5809,-1.5811,-1.5836,-1.5814,-1.5815,-1.5816,-1.5817,-1.5883,-1.5883,0,0,0,0,0,0,-1.5758,-1.5761,-1.5792,-1.5793,-1.5769,-1.5781,-1.5783,-1.5791,-1.58,-1.58,-1.579,-1.5789,-1.5807,-1.5809,-1.5811,-1.584,-1.5815,-1.5817,-1.5818,-1.5882,-1.5883,-1.5884,0,0,0,0,0,0,-1.5757,-1.5761,-1.5791,-1.5777,-1.578,-1.5783,-1.5792,-1.5792,-1.5797,-1.5801,-1.5802,-1.5796,-1.5806,-1.5809,-1.5829,-1.5841,-1.5818,-1.5819,-1.5881,-1.5882,-1.5883,-1.59,0,0,0,0,0,0,-1.5756,-1.576,-1.577,-1.5777,-1.5781,-1.5809,-1.5793,-1.5793,-1.58,-1.5798,-1.5806,-1.5807,-1.5806,-1.5827,-1.583,-1.5842,-1.582,-1.588,-1.5881,-1.5883,-1.5898,-1.5901,-1.5904,0,0,0,0,0,-1.5754,-1.5774,-1.577,-1.5774,-1.5793,-1.5809,-1.5812,-1.581,-1.5801,-1.5811,-1.5813,-1.5807,-1.5839,-1.5829,-1.5833,-1.5846,-1.5879,-1.5881,-1.5883,-1.5897,-1.5901,-1.5904,0,0,0,0,0,0,-1.5768,-1.5775,-1.5771,-1.5794,-1.5801,-1.5807,-1.5819,-1.5815,-1.5825,-1.5823,-1.582,-1.5822,-1.5843,-1.5846,-1.5834,-1.587,-1.5858,-1.586,-1.5867,-1.5871,-1.5874,-1.5872,-1.5821,0,0,0,0,0,-1.5774,-1.5786,-1.5792,-1.5811,-1.5815,-1.5817,-1.5824,-1.5822,-1.5829,-1.5832,-1.5836,-1.5844,-1.5856,-1.5864,-1.5875,-1.5899,-1.59,-1.591,-1.5913,-1.5915,-1.5918,-1.593,-1.5934,-1.589,-1.589,-1.589,0,0,-1.5785,-1.5791,-1.5799,-1.5814,-1.5819,-1.5832,-1.5819,-1.5834,-1.5843,-1.5835,-1.5853,-1.5856,-1.5865,-1.5887,-1.5896,-1.589,-1.593,-1.5918,-1.592,-1.5921,-1.5932,-1.5936,-1.594,-1.5892,-1.5891,-1.5891,0,0,-1.5813,-1.5819,-1.5835,-1.5841,-1.585,-1.5851,-1.5855,-1.5862,-1.5864,-1.5883,-1.5876,-1.5888,-1.5909,-1.5915,-1.592,-1.5951,-1.5945,-1.5955,-1.5971,-1.5983,-1.5986,-1.5989,-1.5999,-1.6003,-1.5957,-1.5958,-1.5958,0,-1.5826,-1.5846,-1.5844,-1.5859,-1.5866,-1.5859,-1.5876,-1.5881,-1.5893,-1.5898,-1.5891,-1.5917,-1.5922,-1.5945,-1.5952,-1.5958,-1.5962,-1.5953,-1.5986,-1.5989,-1.5992,-1.6001,-1.6005,-1.5959,-1.5958,-1.5958,-1.5958,0,-1.5861,-1.5875,-1.5887,-1.5899,-1.5907,-1.5923,-1.5924,-1.5932,-1.593,-1.5932,-1.5951,-1.5957,-1.5969,-1.5975,-1.5973,-1.5997,-1.5993,-1.5986,-1.5973,-1.5997,-1.6006,-1.601,-1.596,-1.596,-1.5959,-1.5959,0,0,-1.5897,-1.5908,-1.5912,-1.5917,-1.5927,-1.5937,-1.5953,-1.5965,-1.5972,-1.5981,-1.5993,-1.6011,-1.6005,-1.6011,-1.601,-1.6021,-1.6044,-1.6013,-1.6013,-1.6017,-1.6071,-1.6075,-1.6079,-1.6041,-1.6042,-1.6042,-1.6069,0,-1.5924,-1.5951,-1.595,-1.5975,-1.5987,-1.5982,-1.5995,-1.6002,-1.6005,-1.6015,-1.6018,-1.603,-1.6022,-1.6025,-1.6036,-1.6039,-1.6054,-1.6037,-1.6052,-1.6052,-1.6048,-1.6084,-1.6088,-1.6114,-1.6073,-1.6074,-1.6074,0,-1.596,-1.5969,-1.5995,-1.6003,-1.6008,-1.602,-1.6031,-1.6041,-1.6049,-1.605,-1.6058,-1.6055,-1.6071,-1.6058,-1.608,-1.6068,-1.6074,-1.6077,-1.6078,-1.6078,-1.6064,-1.6084,-1.6122,-1.6125,-1.608,-1.6079,-1.6079,0,-1.5982,-1.6002,-1.6019,-1.6024,-1.6033,-1.6042,-1.6046,-1.6054,-1.6061,-1.6071,-1.6075,-1.6087,-1.6093,-1.6102,-1.6102,-1.6093,-1.6123,-1.6111,-1.6124,-1.6124,-1.6129,-1.6129,-1.6168,-1.6136,-1.6135,-1.6135,-1.6135,0,-1.6011,-1.6027,-1.6029,-1.604,-1.6058,-1.6057,-1.6075,-1.6078,-1.6085,-1.6096,-1.6093,-1.6103,-1.6104,-1.6115,-1.6115,-1.6132,-1.6136,-1.6136,-1.6136,-1.6136,-1.6136,-1.6139,-1.6137,-1.6136,-1.6136,-1.6136,-1.6136,0,-1.6038,-1.6041,-1.6059,-1.6067,-1.6069,-1.6082,-1.6088,-1.6098,-1.6101,-1.6115,-1.6119,-1.6122,-1.6135,-1.6137,-1.6152,-1.6152,-1.6173,-1.6171,-1.617,-1.6169,-1.6181,-1.6179,-1.6222,-1.6228,-1.6193,-1.6194,-1.6194,0,-1.6057,-1.6068,-1.6077,-1.6085,-1.609,-1.6102,-1.6109,-1.6109,-1.6117,-1.6127,-1.6136,-1.6149,-1.6159,-1.618,-1.6184,-1.6195,-1.6193,-1.6207,-1.6195,-1.6194,-1.6192,-1.6191,-1.6192,-1.6209,-1.621,-1.621,-1.621,0,-1.6088,-1.6089,-1.61,-1.6111,-1.612,-1.6129,-1.6137,-1.6143,-1.6145,-1.6154,-1.6167,-1.6174,-1.619,-1.6202,-1.6214,-1.6218,-1.6214,-1.6215,-1.6218,-1.6217,-1.6215,-1.6215,-1.6175,-1.6213,-1.6213,-1.6213,-1.6213,-1.6212,-1.6111,-1.6121,-1.6129,-1.6141,-1.6147,-1.6155,-1.6165,-1.6169,-1.618,-1.6192,-1.6192,-1.6206,-1.6214,-1.6229,-1.6234,-1.6246,-1.6241,-1.6246,-1.6247,-1.6248,-1.6249,-1.6215,-1.6248,-1.6248,-1.6248,-1.6248,-1.6248,0,-1.6141,-1.6146,-1.6157,-1.6169,-1.6178,-1.6175,-1.6184,-1.6192,-1.6204,-1.6212,-1.6222,-1.6237,-1.6249,-1.6254,-1.6266,-1.6274,-1.6273,-1.6277,-1.6276,-1.6277,-1.6253,-1.6248,-1.6278,-1.6278,-1.6278,-1.6278,-1.6278,-1.6278,-1.6158,-1.6175,-1.6176,-1.6196,-1.6201,-1.6215,-1.622,-1.6228,-1.6234,-1.6251,-1.6261,-1.6264,-1.6271,-1.6283,-1.6294,-1.6295,-1.6299,-1.6304,-1.6305,-1.6282,-1.6279,-1.6276,-1.6271,-1.6306,-1.6306,-1.6328,-1.6328,-1.6328]},{"header":{"parameterUnit":"m.s-1","parameterCategory":1,"la1":30.2991,"la2":30.254,"lo1":-89.0895,"lo2":-89.0444,"dy":0.0017,"dx":0.0017,"nx":28,"ny":28,"refTime":"2023-03-20T15:00:00:Z","depth":0,"parameterNumber":3,"parameterNumberName":"V-component_of_WINDS"},"data":[0,0,0,0,0,0,0,0,0,0,0,0,0,0,0,0,0,0,0,0,0,0,0,0,0,0,0,0,0,0,0,0,0,0,0,0,0,0,0,0,0,0,0,0,0,0,0,0,0,0,0,0,0,0,0,0,0,0,-1.226,-1.2261,0,-1.239,-1.2392,-1.2393,-1.2455,-1.2455,-1.2455,-1.2455,-1.2587,-1.259,-1.2594,0,0,0,0,0,0,0,0,0,0,0,0,0,-1.206,-1.2063,-1.2259,-1.2261,-1.2263,-1.239,-1.2392,-1.2394,-1.2455,-1.2455,-1.2455,-1.2455,-1.2585,-1.259,-1.2594,0,0,0,0,0,0,0,0,0,0,0,0,0,-1.2164,-1.2064,-1.2259,-1.2309,-1.2314,-1.239,-1.2392,-1.2394,-1.2455,-1.2455,-1.2455,-1.2454,-1.2584,-1.2589,-1.2595,-1.263,0,0,-1.2611,-1.2613,0,0,0,0,0,0,0,0,-1.2158,-1.2171,-1.23,-1.2305,-1.2312,-1.2406,-1.237,-1.2473,-1.2455,-1.2401,-1.2455,-1.2454,-1.2527,-1.2537,-1.2561,-1.2636,-1.2642,-1.2612,-1.2615,-1.2617,-1.2619,0,0,0,0,0,0,0,-1.2151,-1.2166,-1.2311,-1.2301,-1.2309,-1.2323,-1.2338,-1.239,-1.2463,-1.2406,-1.2411,-1.2426,-1.253,-1.2556,-1.2565,-1.2644,-1.2611,-1.2616,-1.2619,-1.2622,-1.2755,-1.2755,0,0,0,0,0,0,-1.2136,-1.216,-1.2307,-1.2315,-1.2233,-1.2327,-1.2344,-1.2376,-1.2463,-1.2476,-1.2426,-1.2428,-1.2547,-1.2559,-1.257,-1.2618,-1.2617,-1.2622,-1.2625,-1.2754,-1.2755,-1.2755,0,0,0,0,0,0,-1.2131,-1.2148,-1.2302,-1.2239,-1.2259,-1.2331,-1.2367,-1.2379,-1.2405,-1.2477,-1.249,-1.2439,-1.2547,-1.2562,-1.2615,-1.2623,-1.2625,-1.2629,-1.2754,-1.2755,-1.2755,-1.2713,0,0,0,0,0,0,-1.2125,-1.2146,-1.2161,-1.2239,-1.2263,-1.2345,-1.2367,-1.2381,-1.2414,-1.2419,-1.2494,-1.2506,-1.2548,-1.2607,-1.262,-1.2631,-1.2634,-1.2754,-1.2754,-1.2755,-1.2714,-1.2712,-1.271,0,0,0,0,0,-1.2118,-1.2144,-1.2162,-1.2179,-1.2283,-1.2345,-1.2359,-1.2408,-1.2415,-1.243,-1.2476,-1.2503,-1.262,-1.2611,-1.2627,-1.2639,-1.2753,-1.2754,-1.2755,-1.2715,-1.2712,-1.271,0,0,0,0,0,0,-1.2065,-1.2155,-1.2176,-1.2227,-1.2278,-1.2356,-1.2376,-1.2404,-1.2454,-1.2456,-1.2514,-1.253,-1.2577,-1.2614,-1.2603,-1.2678,-1.2689,-1.2693,-1.2653,-1.2651,-1.265,-1.264,-1.2638,0,0,0,0,0,-1.2059,-1.2103,-1.2179,-1.2217,-1.2242,-1.2305,-1.2334,-1.2367,-1.2422,-1.2444,-1.2494,-1.2546,-1.2594,-1.2625,-1.2673,-1.2719,-1.2736,-1.2735,-1.2733,-1.2731,-1.2734,-1.2762,-1.2762,-1.2757,-1.2757,-1.2757,0,0,-1.2047,-1.2102,-1.2126,-1.2208,-1.2252,-1.2295,-1.2322,-1.2368,-1.2401,-1.245,-1.2504,-1.2542,-1.2604,-1.2653,-1.2678,-1.2685,-1.2739,-1.2732,-1.273,-1.2734,-1.2762,-1.2763,-1.2763,-1.2758,-1.2758,-1.2758,0,0,-1.2049,-1.2095,-1.2132,-1.2175,-1.2241,-1.2283,-1.2291,-1.2365,-1.2392,-1.2447,-1.2485,-1.2525,-1.2606,-1.2649,-1.2681,-1.2698,-1.2725,-1.2712,-1.2703,-1.2729,-1.2729,-1.273,-1.2736,-1.2738,-1.2715,-1.2715,-1.2715,0,-1.2027,-1.2095,-1.2147,-1.2191,-1.2226,-1.2273,-1.2311,-1.235,-1.2427,-1.245,-1.2457,-1.2561,-1.2606,-1.2666,-1.267,-1.2694,-1.2706,-1.2704,-1.2725,-1.2726,-1.2727,-1.2734,-1.2736,-1.2713,-1.2713,-1.2713,-1.2713,0,-1.2064,-1.2111,-1.2133,-1.2208,-1.2245,-1.2285,-1.2342,-1.2373,-1.2403,-1.2444,-1.2498,-1.2553,-1.2614,-1.263,-1.266,-1.2695,-1.2697,-1.2714,-1.2726,-1.2725,-1.2732,-1.2735,-1.271,-1.2711,-1.2711,-1.2712,0,0,-1.2037,-1.214,-1.2147,-1.2182,-1.2258,-1.2294,-1.2336,-1.2396,-1.2422,-1.2473,-1.251,-1.2578,-1.2594,-1.263,-1.2664,-1.2687,-1.2698,-1.2701,-1.2703,-1.2699,-1.274,-1.2727,-1.273,-1.2715,-1.2716,-1.2717,-1.2735,0,-1.2049,-1.2128,-1.2176,-1.2235,-1.2279,-1.2324,-1.2361,-1.2411,-1.2449,-1.2492,-1.2534,-1.2582,-1.2599,-1.2621,-1.2645,-1.2691,-1.2707,-1.269,-1.275,-1.2751,-1.2734,-1.2733,-1.2721,-1.2735,-1.2738,-1.2738,-1.2739,0,-1.2075,-1.2127,-1.219,-1.2261,-1.2281,-1.2313,-1.2372,-1.2412,-1.2469,-1.2496,-1.2536,-1.2571,-1.2616,-1.2624,-1.2688,-1.2675,-1.2702,-1.2728,-1.273,-1.2738,-1.2745,-1.2742,-1.2741,-1.2743,-1.2744,-1.2743,-1.2743,0,-1.2049,-1.2134,-1.2183,-1.2211,-1.2295,-1.2317,-1.2352,-1.241,-1.2443,-1.2494,-1.2516,-1.257,-1.2601,-1.2642,-1.2691,-1.2692,-1.2749,-1.2761,-1.2772,-1.2771,-1.2783,-1.2782,-1.2787,-1.2799,-1.2799,-1.2799,-1.2799,0,-1.2058,-1.2095,-1.2173,-1.2203,-1.2245,-1.23,-1.234,-1.238,-1.243,-1.2468,-1.2511,-1.2545,-1.2607,-1.2649,-1.2687,-1.2734,-1.2747,-1.2769,-1.2779,-1.2766,-1.2763,-1.2785,-1.2785,-1.28,-1.28,-1.2799,-1.2799,0,-1.2037,-1.209,-1.2147,-1.2222,-1.2241,-1.2269,-1.2333,-1.2364,-1.2405,-1.2453,-1.2467,-1.253,-1.2582,-1.2635,-1.2704,-1.273,-1.2776,-1.2789,-1.2756,-1.2762,-1.2771,-1.2769,-1.2791,-1.2796,-1.2804,-1.2804,-1.2803,0,-1.204,-1.207,-1.2148,-1.2177,-1.2212,-1.2258,-1.2292,-1.2346,-1.238,-1.2447,-1.247,-1.2525,-1.2572,-1.2652,-1.2704,-1.2758,-1.2772,-1.2776,-1.2781,-1.2767,-1.2773,-1.2771,-1.2774,-1.2774,-1.2774,-1.2774,-1.2774,0,-1.2039,-1.2064,-1.2112,-1.2169,-1.2209,-1.2256,-1.2305,-1.2326,-1.2389,-1.2424,-1.2478,-1.2515,-1.2586,-1.264,-1.27,-1.2736,-1.2765,-1.2772,-1.2777,-1.2764,-1.2745,-1.2756,-1.2752,-1.2771,-1.2771,-1.2771,-1.2772,-1.2772,-1.2031,-1.2059,-1.2119,-1.2171,-1.2213,-1.2258,-1.229,-1.2335,-1.2382,-1.2445,-1.2473,-1.2527,-1.2584,-1.2667,-1.2702,-1.2745,-1.2753,-1.2761,-1.2763,-1.2764,-1.2761,-1.2737,-1.2756,-1.2756,-1.2756,-1.2756,-1.2757,0,-1.2033,-1.2073,-1.2121,-1.2188,-1.2228,-1.2253,-1.2308,-1.234,-1.2387,-1.2438,-1.2483,-1.2545,-1.2598,-1.2654,-1.2709,-1.2733,-1.2748,-1.2746,-1.2745,-1.2753,-1.2751,-1.2741,-1.2733,-1.2733,-1.2733,-1.2733,-1.2733,-1.2733,-1.2039,-1.2089,-1.212,-1.2191,-1.2232,-1.2286,-1.2315,-1.2356,-1.2397,-1.2464,-1.2508,-1.2545,-1.2598,-1.2657,-1.2707,-1.2722,-1.274,-1.2735,-1.2753,-1.2751,-1.2753,-1.2754,-1.2745,-1.2738,-1.2738,-1.2752,-1.2752,-1.2752]}]]